DW9029 Weather Reports


Display with metric or nautical units.
time (UTC)temp
F
wind
direction
speed
MPH
gust
MPH
rain 1hr
in
rain 24hr
in
rain mn
in
humidity
%
barometer
mb
20260502130404 73 230 1.0 6.0 0.00 0.00 0.00 60 1015.9
20260502123404 72 214 2.0 7.0 0.00 0.00 0.00 63 1016.2
20260502121904 72 255 2.0 8.0 0.00 0.00 0.00 63 1016.4
20260502121404 72 247 3.0 10.0 0.00 0.00 0.00 63 1016.5
20260502120904 72 142 0.0 1.0 0.00 0.00 0.00 64 1016.5
20260502120404 72 181 0.0 5.0 0.00 0.00 0.00 64 1016.4
20260502114904 71 188 1.0 5.0 0.00 0.00 0.00 65 1016.2
20260502114404 71 145 0.0 8.0 0.00 0.00 0.00 65 1016.3
20260502113404 71 116 3.0 7.0 0.00 0.00 0.00 65 1016.5
20260502111904 71 131 1.0 6.0 0.00 0.00 0.00 66 1016.5
20260502111405 70 169 2.0 8.0 0.00 0.00 0.00 66 1016.6
20260502110904 70 114 5.0 8.0 0.00 0.00 0.00 66 1016.8
20260502104904 70 60 4.0 8.0 0.00 0.00 0.00 66 1017.1
20260502104404 70 306 0.0 3.0 0.00 0.00 0.00 67 1017.1
20260502103904 69 170 1.0 3.0 0.00 0.00 0.00 67 1017.3
20260502103404 70 234 2.0 7.0 0.00 0.00 0.00 67 1017.2
20260502101904 69 82 0.0 0.0 0.00 0.00 0.00 68 1017.4
20260502101404 69 79 0.0 0.0 0.00 0.00 0.00 68 1017.4
20260502100904 68 61 0.0 0.0 0.00 0.00 0.00 68 1017.4
20260502091404 68 65 0.0 0.0 0.00 0.00 0.00 69 1017.4
20260502090904 67 65 0.0 0.0 0.00 0.00 0.00 71 1017.4
20260502090404 66 65 1.0 3.0 0.00 0.00 0.00 72 1017.4
20260502071404 63 334 0.0 0.0 0.00 0.00 0.00 74 1017.2
20260502070905 63 334 0.0 2.0 0.00 0.00 0.00 74 1017.3
20260502070404 62 333 0.0 3.0 0.00 0.00 0.00 75 1017.2
20260502064904 62 329 2.0 3.0 0.00 0.00 0.00 76 1017.1
20260502064404 62 347 0.0 0.0 0.00 0.00 0.00 76 1017.1
20260502063404 62 315 0.0 2.0 0.00 0.00 0.00 75 1016.9
20260502061404 62 315 0.0 0.0 0.00 0.00 0.00 76 1016.9
20260502060904 62 315 0.0 0.0 0.00 0.00 0.00 76 1016.9
20260502060404 62 315 0.0 0.0 0.00 0.00 0.00 76 1016.9
20260502054904 62 315 0.0 0.0 0.00 0.00 0.00 76 1016.7
20260502054404 62 314 0.0 0.0 0.00 0.00 0.00 76 1016.6
20260502053904 62 314 0.0 1.0 0.00 0.00 0.00 76 1016.6
20260502053405 62 314 0.0 0.0 0.00 0.00 0.00 76 1016.6
20260502051904 62 313 0.0 0.0 0.00 0.00 0.00 76 1016.4
20260502051404 62 313 0.0 0.0 0.00 0.00 0.00 75 1016.4
20260502050904 62 313 0.0 0.0 0.00 0.00 0.00 75 1016.5
20260502050404 62 313 0.0 0.0 0.00 0.00 0.00 75 1016.4
20260502044904 62 279 0.0 0.0 0.00 0.00 0.00 75 1016.5
20260502044403 62 279 0.0 0.0 0.00 0.00 0.00 76 1016.4
20260502043904 62 279 0.0 0.0 0.00 0.00 0.00 76 1016.5
20260502043404 62 279 0.0 1.0 0.00 0.00 0.00 76 1016.6
20260502041904 62 279 0.0 0.0 0.00 0.00 0.00 76 1016.7
20260502041404 62 279 0.0 0.0 0.00 0.00 0.00 76 1016.6
20260502040903 63 279 0.0 0.0 0.00 0.00 0.00 76 1016.6
20260502040404 63 279 0.0 0.0 0.00 0.00 0.00 76 1016.6
20260502034904 63 279 0.0 0.0 0.00 0.00 0.00 76 1016.7
20260502034404 63 279 0.0 0.0 0.00 0.00 0.00 77 1016.8
20260502033904 63 279 0.0 0.0 0.00 0.00 0.00 77 1016.8
20260502033404 63 279 0.0 0.0 0.00 0.00 0.00 77 1016.9
20260502031404 63 279 0.0 0.0 0.00 0.00 0.00 76 1016.7
20260502030904 63 279 0.0 0.0 0.00 0.00 0.00 76 1016.8
20260502030404 63 279 0.0 0.0 0.00 0.00 0.00 77 1016.9
20260502024904 63 279 0.0 0.0 0.00 0.00 0.00 77 1016.8
20260502024405 63 279 0.0 0.0 0.00 0.00 0.00 77 1016.8
20260502023904 63 279 0.0 0.0 0.00 0.00 0.00 77 1016.8
20260502021904 63 279 0.0 0.0 0.00 0.00 0.00 76 1016.8
20260502021404 63 279 0.0 0.0 0.00 0.00 0.00 76 1016.8
20260502020904 63 279 0.0 0.0 0.00 0.00 0.00 76 1016.9
20260502020404 63 279 0.0 0.0 0.00 0.00 0.00 77 1016.9
20260502014904 63 279 0.0 0.0 0.00 0.00 0.00 77 1017.0
20260502014403 63 279 0.0 0.0 0.00 0.00 0.00 77 1017.1
20260502013404 62 279 0.0 0.0 0.00 0.00 0.00 78 1017.2
20260502011904 62 279 0.0 0.0 0.00 0.00 0.00 78 1017.4
20260502011404 63 279 0.0 0.0 0.00 0.00 0.00 78 1017.4
20260502010404 63 279 0.0 0.0 0.00 0.00 0.00 76 1017.5
20260502001904 64 279 0.0 0.0 0.00 0.00 0.00 71 1018.1
20260502001403 64 279 0.0 0.0 0.00 0.00 0.00 72 1018.2
20260502000904 64 279 0.0 0.0 0.00 0.00 0.00 72 1018.1
20260502000404 64 279 0.0 0.0 0.00 0.00 0.00 72 1018.1
20260501234904 64 279 0.0 0.0 0.00 0.00 0.00 71 1018.1
20260501234404 64 279 0.0 0.0 0.00 0.00 0.00 71 1018.2
20260501233904 64 279 0.0 0.0 0.00 0.00 0.00 71 1018.2
20260501233404 64 279 0.0 1.0 0.00 0.00 0.00 71 1018.3
20260501231904 64 279 0.0 0.0 0.00 0.00 0.00 70 1018.3
20260501231405 64 278 2.0 3.0 0.00 0.00 0.00 70 1018.3
20260501230405 64 263 0.0 6.0 0.00 0.00 0.00 70 1018.3
20260501224404 65 247 2.0 5.0 0.00 0.00 0.00 69 1018.1
20260501223904 65 250 1.0 3.0 0.00 0.00 0.00 68 1018.1
20260501223404 65 244 1.0 5.0 0.00 0.00 0.00 68 1018.1
20260501221904 65 249 2.0 3.0 0.00 0.00 0.00 67 1018.0
20260501221404 66 226 1.0 5.0 0.00 0.00 0.00 67 1017.9
20260501220904 66 236 2.0 3.0 0.00 0.00 0.00 66 1017.8
20260501220404 66 223 0.0 3.0 0.00 0.00 0.00 66 1017.9
20260501214404 66 252 1.0 3.0 0.00 0.00 0.00 64 1017.8
20260501213904 67 251 3.0 6.0 0.00 0.00 0.00 63 1017.9
20260501213404 67 240 0.0 5.0 0.00 0.00 0.00 63 1017.9
20260501211904 67 217 0.0 3.0 0.00 0.00 0.00 62 1017.8
20260501211404 67 214 2.0 5.0 0.00 0.00 0.00 62 1017.7
20260501210904 67 273 0.0 0.0 0.00 0.00 0.00 61 1017.7
20260501210404 68 247 2.0 5.0 0.00 0.00 0.00 61 1017.8
20260501204904 68 254 2.0 3.0 0.00 0.00 0.00 59 1017.6
20260501204404 68 222 0.0 1.0 0.00 0.00 0.00 59 1017.5
20260501203404 69 235 0.0 2.0 0.00 0.00 0.00 58 1017.4
20260501201904 69 235 1.0 3.0 0.00 0.00 0.00 57 1017.1
20260501201404 69 224 2.0 7.0 0.00 0.00 0.00 56 1017.2
20260501200903 70 255 0.0 7.0 0.00 0.00 0.00 55 1017.2
20260501200404 70 272 0.0 3.0 0.00 0.00 0.00 55 1017.1
20260501194904 70 218 1.0 7.0 0.00 0.00 0.00 54 1016.9
20260501194404 70 222 3.0 5.0 0.00 0.00 0.00 53 1016.8
20260501193904 70 209 0.0 0.0 0.00 0.00 0.00 53 1016.7
20260501193404 70 207 0.0 7.0 0.00 0.00 0.00 53 1016.6
20260501191904 71 210 3.0 6.0 0.00 0.00 0.00 52 1016.3
20260501191404 71 213 1.0 3.0 0.00 0.00 0.00 51 1016.4
20260501190404 71 198 2.0 7.0 0.00 0.00 0.00 51 1016.3
20260501184904 71 212 3.0 7.0 0.00 0.00 0.00 50 1016.1
20260501184404 72 211 5.0 8.0 0.00 0.00 0.00 50 1016.2
20260501183404 72 213 2.0 10.0 0.00 0.00 0.00 50 1016.1
20260501181905 73 208 5.0 10.0 0.00 0.00 0.00 49 1016.1
20260501180904 73 221 2.0 9.0 0.00 0.00 0.00 49 1016.1
20260501180404 73 216 6.0 9.0 0.00 0.00 0.00 49 1016.1
20260501174904 74 205 3.0 8.0 0.00 0.00 0.00 48 1016.0
20260501174404 75 215 2.0 9.0 0.00 0.00 0.00 47 1016.0
20260501173904 75 197 1.0 7.0 0.00 0.00 0.00 47 1016.0
20260501173404 75 212 3.0 9.0 0.00 0.00 0.00 46 1016.1
20260501171904 75 240 5.0 10.0 0.00 0.00 0.00 45 1016.0
20260501170904 76 206 4.0 9.0 0.00 0.00 0.00 44 1016.1
20260501164904 75 202 6.0 9.0 0.00 0.00 0.00 42 1016.1
20260501164404 75 191 4.0 8.0 0.00 0.00 0.00 46 1016.0
20260501163904 75 222 3.0 9.0 0.00 0.00 0.00 47 1016.0
20260501161904 76 227 6.0 9.0 0.00 0.00 0.00 49 1016.0
20260501161404 75 217 6.0 10.0 0.00 0.00 0.00 49 1016.0
20260501160904 76 236 2.0 10.0 0.00 0.00 0.00 50 1015.9
20260501160404 75 213 3.0 14.0 0.00 0.00 0.00 50 1015.9
20260501154905 75 214 3.0 8.0 0.00 0.00 0.00 52 1015.9
20260501153904 75 225 6.0 14.0 0.00 0.00 0.00 53 1015.9
20260501153404 76 208 7.0 14.0 0.00 0.00 0.00 51 1016.0
20260501151904 76 184 4.0 10.0 0.00 0.00 0.00 50 1016.0
20260501151404 76 214 7.0 12.0 0.00 0.00 0.00 50 1016.0
20260501150904 76 247 6.0 12.0 0.00 0.00 0.00 49 1016.0
20260501144904 77 229 8.0 14.0 0.00 0.00 0.00 48 1016.3